EW6866 Weather Reports


time (UTC)temp
C
wind
direction
speed
KPH
gust
KPH
rain 1hr
cm
rain 24hr
cm
rain mn
cm
humidity
%
barometer
mb
20260505190004 27 242 3.2 16.1 0.00 0.00 0.00 50 1015.2
20260505184504 27 280 3.2 17.7 0.00 0.00 0.00 49 1015.3
20260505183004 27 258 3.2 17.7 0.00 0.00 0.00 51 1015.3
20260505181525 27 245 1.6 11.3 0.00 0.00 0.00 50 1015.4
20260505180005 27 226 1.6 9.7 0.00 0.00 0.00 52 1015.4
20260505174525 27 202 3.2 11.3 0.00 0.00 0.00 51 1015.6
20260505173004 26 247 3.2 9.7 0.00 0.00 0.00 48 1015.7
20260505171525 26 263 3.2 12.9 0.00 0.00 0.00 51 1015.8
20260505170004 26 251 3.2 12.9 0.00 0.00 0.00 49 1016.1
20260505164504 26 191 3.2 9.7 0.00 0.00 0.00 50 1016.3
20260505163004 26 196 3.2 12.9 0.00 0.00 0.00 54 1016.3
20260505161504 25 204 3.2 14.5 0.00 0.00 0.00 54 1016.5
20260505153004 24 222 3.2 14.5 0.00 0.00 0.00 57 1016.8
20260505151504 24 191 3.2 12.9 0.00 0.00 0.00 59 1016.7
20260505124504 18 184 1.6 12.9 0.00 0.00 0.00 75 1016.9
20260505123004 18 204 1.6 6.4 0.00 0.00 0.00 78 1016.8
20260505121504 17 220 1.6 11.3 0.00 0.00 0.00 80 1016.8
20260505120005 16 191 0.0 3.2 0.00 0.00 0.00 83 1016.9
20260505114504 16 140 0.0 4.8 0.00 0.00 0.00 85 1016.8
20260505113004 15 171 0.0 4.8 0.00 0.00 0.00 86 1016.7
20260505111503 15 192 0.0 1.6 0.00 0.00 0.00 87 1016.7
20260505101503 14 269 0.0 6.4 0.00 0.00 0.00 86 1015.9
20260505100004 14 168 0.0 4.8 0.00 0.00 0.00 85 1015.8
20260505094504 15 230 0.0 3.2 0.00 0.00 0.00 85 1015.6
20260505093025 14 228 0.0 4.8 0.00 0.00 0.00 85 1015.6
20260505091503 14 167 0.0 6.4 0.00 0.00 0.00 86 1015.4
20260505090004 14 251 0.0 3.2 0.00 0.00 0.00 86 1015.4
20260505084504 14 179 0.0 1.6 0.00 0.00 0.00 86 1015.2
20260505083003 14 199 0.0 3.2 0.00 0.00 0.00 86 1015.4
20260505081503 14 161 0.0 4.8 0.00 0.00 0.00 86 1015.3
20260505080004 14 0 0.0 0.0 0.00 0.00 0.00 85 1015.1
20260505074505 14 232 0.0 1.6 0.00 0.00 0.00 85 1015.0
20260505073005 14 250 0.0 3.2 0.00 0.00 0.00 85 1015.0
20260505071505 14 121 0.0 1.6 0.00 0.00 0.00 84 1015.0
20260505070005 15 205 0.0 1.6 0.00 0.00 0.00 83 1014.8
20260505064505 15 214 0.0 1.6 0.00 0.00 0.00 82 1014.8
20260505063006 15 253 0.0 1.6 0.00 0.00 0.00 80 1014.8
20260505061506 15 236 0.0 3.2 0.00 0.00 0.00 79 1015.0
20260505060005 16 257 0.0 3.2 0.00 0.00 0.00 78 1015.0
20260505054505 16 250 0.0 1.6 0.00 0.00 0.00 77 1015.1
20260505053005 16 207 0.0 6.4 0.00 0.00 0.00 76 1015.1
20260505051505 16 154 0.0 4.8 0.00 0.00 0.00 75 1015.1
20260505041505 17 180 1.6 8.0 0.00 0.00 0.00 71 1015.2
20260505040006 17 187 1.6 11.3 0.00 0.00 0.00 71 1015.2
20260505034506 17 199 1.6 9.7 0.00 0.00 0.00 70 1015.2
20260505033005 17 249 1.6 8.0 0.00 0.00 0.00 70 1015.0
20260505031505 17 213 1.6 9.7 0.00 0.00 0.00 69 1014.9
20260505030005 18 235 1.6 8.0 0.00 0.00 0.00 69 1015.0
20260505024505 18 204 1.6 14.5 0.00 0.00 0.00 69 1015.0
20260505023005 18 191 1.6 9.7 0.00 0.00 0.00 70 1015.0
20260505021505 18 242 1.6 12.9 0.00 0.00 0.00 69 1015.1
20260505020026 18 233 3.2 9.7 0.00 0.00 0.00 69 1015.0
20260505014505 18 195 1.6 17.7 0.00 0.00 0.00 68 1014.9
20260505013005 18 240 1.6 12.9 0.00 0.00 0.00 68 1014.8
20260505011526 18 216 1.6 9.7 0.00 0.00 0.00 68 1014.6
20260505010005 19 201 1.6 14.5 0.00 0.00 0.00 68 1014.3
20260505004526 19 252 1.6 11.3 0.00 0.00 0.00 67 1014.1
20260505003027 19 245 3.2 6.4 0.00 0.00 0.00 67 1014.1
20260505001506 20 245 1.6 11.3 0.00 0.00 0.00 66 1013.8
20260505000004 20 236 1.6 14.5 0.00 0.00 0.00 67 1013.6
20260504234504 20 236 1.6 11.3 0.00 0.00 0.00 66 1013.5
20260504233005 20 237 3.2 11.3 0.00 0.00 0.00 65 1013.1
20260504231505 21 268 4.8 14.5 0.00 0.00 0.00 64 1013.1
20260504230006 21 240 3.2 11.3 0.00 0.00 0.00 63 1012.9
20260504224525 21 236 4.8 16.1 0.00 0.00 0.00 62 1012.8
20260504223004 21 250 3.2 17.7 0.00 0.00 0.00 61 1012.8
20260504221504 22 249 3.2 17.7 0.00 0.00 0.00 61 1012.9
20260504220005 22 231 4.8 16.1 0.00 0.00 0.00 60 1012.9
20260504214505 22 271 4.8 19.3 0.00 0.00 0.00 59 1013.0
20260504213005 23 267 3.2 12.9 0.00 0.00 0.00 57 1013.0
20260504211504 23 266 3.2 20.9 0.00 0.00 0.00 55 1013.0
20260504210004 24 251 3.2 19.3 0.00 0.00 0.00 52 1013.1
20260504204525 25 249 4.8 12.9 0.00 0.00 0.00 51 1013.1
20260504203004 26 175 1.6 16.1 0.00 0.00 0.00 40 1013.0
20260504201505 25 246 3.2 14.5 0.00 0.00 0.00 42 1013.1
20260504200004 26 254 1.6 12.9 0.00 0.00 0.00 40 1013.0
20260504194505 26 189 1.6 8.0 0.00 0.00 0.00 43 1013.1
20260504193004 25 233 1.6 11.3 0.00 0.00 0.00 41 1013.3
20260504191504 26 241 1.6 14.5 0.00 0.00 0.00 40 1013.5